Other Surface Observations
Issued by NWS

Home | Current Version | Previous Version | Text Only | Print | Product List | Glossary On
Versions: 1 2 3 4 5 6 7 8 9 10 11 12 13 14 15 16 17 18 19 20 21 22 23 24 25 26 27 28 29 30 31 32 33 34 35 36 37 38 39 40 41 42 43 44 45 46 47 48 49 50
000
SXUS52 KTAE 211718
OSOTAE
OSOTAE
North Florida/South Alabama/Southwest Georgia Weather Roundup
National Weather Service Tallahassee Florida
100 PM EDT TUE OCT 21 2014

Note: "fair" indicates few or no clouds below 12,000 feet with no
significant weather and/or obstructions to visibility.

!FLZ017-115-028-034-025-211800
...North Florida...

CITY           SKY/WX    TMP DP  RH WIND       PRES   REMARKS
TALLAHASSEE    MOSUNNY   79  55  43 N7        29.99F
APALACHICOLA   MOSUNNY   81  60  48 NW6       30.00S
PERRY          SUNNY     77  59  53 NE6       29.99F
CROSS CITY       N/A     82  62  50 CALM      29.97F
JACKSONVILLE   MOSUNNY   80  62  54 VRB5      29.96F
$$

!FLZ112-006-005-002-011-211800
...Florida Panhandle...

CITY           SKY/WX    TMP DP  RH WIND       PRES   REMARKS
MARIANNA       SUNNY     76  53  44 N9        30.01F
BONIFAY        NOT AVBL
PANAMA CITY NW FAIR      78  52  40 N9        30.00F
TYNDALL AFB    SUNNY     78  60  53 E5        30.01F
TYND DRONE APT NOT AVBL
DE FUNIAK SPR  FAIR      74  52  45 NE7       30.03F
EGLIN AFB      MOSUNNY   77  51  39 NE8       30.02F
DESTIN         SUNNY     78  53  41 N6        30.02F
HURLBURT       SUNNY     77  47  33 N7        30.01F
CRESTVIEW      SUNNY     77  53  43 NW7       30.05S
PENSACOLA      SUNNY     75  51  43 N8        30.03F
$$

!ALZ063-066-211800
...South Alabama...

CITY           SKY/WX    TMP DP  RH WIND       PRES   REMARKS
DOTHAN         SUNNY     76  53  44 N8        30.06F
OZARK CAIRNS   SUNNY     76  52  43 N7        30.02F
FT RUCKER HELI SUNNY     75  54  47 VRB3      30.02F
RUCKER HELI 3  FAIR      74  53  46 VRB7      30.05F
RUCKER HELI 2  FAIR      76  51  41 N8        30.02F
FLORALA APT    SUNNY     77  53  43 NE9       30.05S
ANDALUSIA      SUNNY     80  50  34 VRB3      30.03F
TROY           SUNNY     77  51  40 N9        30.04F
EUFALA         FAIR      76  54  46 N3        30.01F
MOBILE         SUNNY     74  53  48 N8        30.06F
$$

!GAZ120>161-211800
...Southwest and South Central Georgia...

CITY           SKY/WX    TMP DP  RH WIND       PRES   REMARKS
THOMASVILLE    FAIR      77  55  47 NW5       30.01F
BAINBRIDGE     SUNNY     79  55  44 N6        30.02S
MOODY AFB      SUNNY     77  56  47 VRB3      29.99F
VALDOSTA       SUNNY     78  56  46 CALM      29.99F
MOULTRIE       SUNNY     75  55  50 NW7       30.01S
BLAKELY        SUNNY     77  52  41 N5          N/A
ALBANY         SUNNY     76  53  44 NW7       30.02F
TIFTON         FAIR      75  50  41 N3        30.00F
FITZGERALD     FAIR      77  49  37 CALM      30.02F
CORDELE        FAIR      76  52  42 NW7       30.01F
AMERICUS       FAIR      72  52  49 N6        30.03F
HOMERVILLE     FAIR      79  59  50 NW8       29.99F
$$

!GMZ750-755-770-775-211800
...Coastal and Buoy Obs...

STATION/POSITION TIME  TEMP    WIND        PRES    VSBY  WAVE
                       AIR SEA DIR/SP/G                  HT/PER
                 (UTC) (F)     (DEG/KT/KT) (MB)    (MI)  (FT/S)
KEATON BEACH     1700   78     320/  3/  5 1015.3F
CEDAR KEY        1654   75      30/  6/  8 1015.2F
C TOWER          1700   73      40/ 10/ 12 1015.6F
APALACHICOLA BUO 1700   77 81   60/ 10/ 14 1015.1F         1/ 3
PANAMA CITY BUOY 1559   75 81   30/ 12/ 16 1015.9F         2/ 4
MOBILE BUOY      1621   74 80   40/ 12/ 16 1017.3F         2/ 4
ORANGE BCH AL BU 1700   71 78   40/ 10/ 12 1016.8F         2/ 4
$$



USA.gov is the U.S. government's official web portal to all federal, state and local government web resources and services.